EW1558 Weather Reports


Display with metric or nautical units.
time (UTC)temp
F
wind
direction
speed
MPH
gust
MPH
rain 1hr
in
rain 24hr
in
rain mn
in
humidity
%
barometer
mb
20260506113030 42 325 1.0 3.0 0.00 0.00 0.00 81 1011.4
20260506111533 40 327 0.0 2.0 0.00 0.00 0.00 82 1011.4
20260506110034 40 336 1.0 3.0 0.00 0.00 0.00 83 1011.1
20260506104526 40 347 2.0 3.0 0.00 0.00 0.00 81 1010.8
20260506103022 40 360 2.0 3.0 0.00 0.00 0.00 79 1010.6
20260506101532 41 30 2.0 3.0 0.00 0.00 0.00 76 1010.4
20260506100016 43 93 1.0 3.0 0.00 0.00 0.00 73 1010.6
20260506094517 44 96 0.0 3.0 0.00 0.00 0.00 71 1010.5
20260506093015 44 97 0.0 0.0 0.00 0.00 0.00 71 1010.6
20260506091514 44 97 0.0 2.0 0.00 0.00 0.00 70 1010.6
20260506090009 45 98 0.0 2.0 0.00 0.00 0.00 67 1010.7
20260506084515 47 98 0.0 3.0 0.00 0.00 0.00 65 1010.4
20260506083003 47 94 2.0 7.0 0.00 0.00 0.00 64 1010.5
20260506081502 47 113 2.0 7.0 0.00 0.00 0.00 66 1010.4
20260506073105 48 100 6.0 8.0 0.00 0.00 0.00 68 1010.0
20260506071610 48 99 5.0 8.0 0.00 0.00 0.00 67 1010.0
20260506061551 49 85 9.0 14.0 0.00 0.00 0.00 68 1010.2
20260506044538 50 61 9.0 15.0 0.00 0.00 0.00 62 1009.8
20260506043036 51 65 11.0 17.0 0.00 0.00 0.00 64 1009.7
20260506041544 51 24 1.0 5.0 0.00 0.00 0.00 56 1009.4
20260506040032 51 53 2.0 6.0 0.00 0.00 0.00 58 1009.3
20260506034531 51 45 2.0 10.0 0.00 0.00 0.00 65 1009.2
20260506033031 53 47 5.0 10.0 0.00 0.00 0.00 47 1008.8
20260506031528 53 36 4.0 10.0 0.00 0.00 0.00 43 1008.8
20260506030031 53 59 5.0 11.0 0.00 0.00 0.00 44 1008.9
20260506024524 52 20 1.0 5.0 0.00 0.00 0.00 47 1008.5
20260506023023 52 53 0.0 1.0 0.00 0.00 0.00 47 1008.5
20260506021521 53 53 0.0 1.0 0.00 0.00 0.00 47 1008.3
20260506020022 53 53 0.0 0.0 0.00 0.00 0.00 46 1008.0
20260506014519 54 53 0.0 0.0 0.00 0.00 0.00 43 1007.6
20260506013025 54 53 0.0 1.0 0.00 0.00 0.00 43 1007.4
20260506011516 55 53 0.0 1.0 0.00 0.00 0.00 41 1007.2
20260506010023 55 53 0.0 4.0 0.00 0.00 0.00 40 1007.0
20260506004519 55 13 1.0 7.0 0.00 0.00 0.00 39 1007.0
20260506003014 56 55 2.0 6.0 0.00 0.00 0.00 39 1006.8
20260506001515 56 84 2.0 10.0 0.00 0.00 0.00 40 1006.8
20260506000018 56 11 0.0 5.0 0.00 0.00 0.00 39 1006.7
20260505234517 56 360 0.0 4.0 0.00 0.00 0.00 39 1006.7
20260505233012 56 65 0.0 3.0 0.00 0.00 0.00 38 1006.7
20260505231512 57 40 1.0 7.0 0.00 0.00 0.00 38 1006.8
20260505230015 57 61 1.0 6.0 0.00 0.00 0.00 38 1006.9
20260505224512 57 74 0.0 3.0 0.00 0.01 0.00 38 1007.0
20260505223011 57 55 2.0 7.0 0.00 0.01 0.00 37 1006.9
20260505221510 57 71 2.0 11.0 0.00 0.01 0.00 37 1006.9
20260505220023 58 341 1.0 4.0 0.00 0.01 0.00 35 1007.0
20260505214513 58 344 3.0 10.0 0.00 0.01 0.00 34 1006.8
20260505213009 58 351 1.0 10.0 0.00 0.01 0.00 35 1006.8
20260505211508 58 336 1.0 8.0 0.00 0.01 0.00 36 1006.8
20260505210009 58 349 0.0 6.0 0.00 0.01 0.00 34 1006.7
20260505204515 58 13 1.0 8.0 0.00 0.01 0.00 33 1006.9
20260505203007 58 11 1.0 5.0 0.00 0.01 0.00 34 1007.0
20260505201506 58 5 3.0 10.0 0.00 0.01 0.00 33 1007.0
20260505200008 58 59 2.0 7.0 0.00 0.01 0.00 34 1007.1
20260505194507 58 5 4.0 10.0 0.00 0.01 0.00 32 1007.1
20260505193019 59 89 2.0 9.0 0.00 0.01 0.00 32 1007.2
20260505191504 59 94 1.0 7.0 0.00 0.01 0.00 32 1007.2
20260505190003 59 244 2.0 6.0 0.00 0.01 0.00 34 1007.2
20260505184501 58 309 2.0 7.0 0.00 0.01 0.00 35 1007.2
20260505183003 58 87 2.0 8.0 0.00 0.01 0.00 36 1007.2
20260505181603 58 110 6.0 15.0 0.00 0.01 0.00 35 1006.9
20260505180058 58 78 4.0 11.0 0.00 0.01 0.00 38 1006.8
20260505174557 57 306 1.0 6.0 0.00 0.01 0.00 37 1006.8
20260505173056 57 346 2.0 8.0 0.00 0.01 0.00 38 1006.9
20260505171555 56 36 3.0 9.0 0.00 0.01 0.00 39 1006.8
20260505170104 56 313 2.0 9.0 0.00 0.01 0.00 40 1007.1
20260505164553 56 13 3.0 8.0 0.00 0.01 0.00 42 1006.9
20260505163058 55 65 3.0 8.0 0.00 0.01 0.00 42 1006.8
20260505161552 54 57 1.0 9.0 0.00 0.01 0.00 43 1007.0
20260505153105 53 14 2.0 9.0 0.00 0.01 0.00 45 1006.7
20260505151551 53 32 2.0 7.0 0.00 0.01 0.00 44 1006.8
20260505150109 53 40 1.0 8.0 0.00 0.01 0.00 44 1006.8
20260505124539 50 54 3.0 7.0 0.00 0.01 0.00 49 1006.6
20260505123100 50 22 1.0 8.0 0.00 0.01 0.00 53 1007.0
20260505121539 50 58 0.0 4.0 0.00 0.01 0.00 50 1006.7
20260505120046 50 17 1.0 8.0 0.00 0.01 0.00 49 1006.9
20260505114545 50 34 2.0 7.0 0.00 0.01 0.00 51 1006.3